Terug naar catalogus

TITAN 3C TRANSTAGE DEB

LostHEO
NORAD 35502·DEBRIS·🇺🇸 United States

Gelanceerd Dec 21, 1965 vanaf Cape Canaveral Space Force Station

Loading…

Volgende Passages (komende 24 uur)

TLE

VerouderdSource: Space-Track

Epoch: May 16, 2026, 07:11 UTC

1 35502U 65108DH  26136.29993700  .00000297  00000-0  71973-3 0  9990
2 35502  26.6689 209.4761 6607773  68.1505 347.1469  3.03814933  1384

Volg TITAN 3C TRANSTAGE DEB in realtime met AllMySat

Download on the App Store